DW4993 Weather Reports


Display with metric or nautical units.
time (UTC)temp
F
wind
direction
speed
MPH
gust
MPH
rain 1hr
in
rain 24hr
in
rain mn
in
humidity
%
barometer
mb
20260904075804 50 175 0.0 0.0 0.00 0.24 0.00 64 1013.8
20260904075306 50 175 0.0 2.0 0.00 0.24 0.00 62 1013.7
20260904074305 51 164 1.0 2.0 0.00 0.24 0.00 60 1013.6
20260904073804 51 164 0.0 1.0 0.00 0.24 0.00 61 1013.6
20260904073304 51 164 0.0 2.0 0.00 0.24 0.00 60 1013.6
20260904072805 52 163 1.0 2.0 0.00 0.24 0.00 59 1013.7
20260904072306 52 164 1.0 2.0 0.00 0.24 0.00 58 1013.5
20260904071804 52 168 1.0 3.0 0.00 0.24 0.00 58 1013.5
20260904071304 52 209 1.0 3.0 0.00 0.24 0.00 58 1013.2
20260904070805 52 167 1.0 3.0 0.00 0.24 0.00 58 1013.3
20260904070305 52 166 1.0 2.0 0.00 0.24 0.00 58 1012.9
20260904065805 52 166 1.0 2.0 0.00 0.24 0.00 58 1013.0
20260904065306 53 166 1.0 3.0 0.00 0.24 0.00 57 1012.8
20260904064804 53 177 1.0 2.0 0.00 0.24 0.00 56 1012.6
20260904064306 54 207 1.0 2.0 0.00 0.24 0.00 55 1012.4
20260904063804 55 237 0.0 2.0 0.00 0.24 0.00 53 1012.1
20260904063304 55 218 1.0 2.0 0.00 0.24 0.00 51 1011.6
20260904062804 55 228 1.0 5.0 0.00 0.24 0.00 50 1011.8
20260904062306 54 232 2.0 5.0 0.00 0.24 0.00 51 1011.5
20260904061804 52 234 2.0 6.0 0.00 0.24 0.00 54 1011.6
20260904060817 53 160 0.0 2.0 0.00 0.24 0.00 57 1011.5
20260904060304 53 160 0.0 1.0 0.00 0.24 0.00 55 1011.3
20260904055805 54 160 0.0 2.0 0.00 0.24 0.24 55 1011.4
20260904055306 54 160 1.0 2.0 0.00 0.24 0.24 54 1011.4
20260904054804 54 152 1.0 2.0 0.00 0.24 0.24 54 1011.0
20260904054304 54 167 1.0 2.0 0.00 0.24 0.24 54 1011.0
20260904053805 54 296 0.0 1.0 0.00 0.24 0.24 52 1011.1
20260904053305 55 296 0.0 1.0 0.00 0.24 0.24 52 1010.9
20260904052805 55 296 0.0 3.0 0.00 0.24 0.24 51 1010.6
20260904052307 55 267 0.0 1.0 0.00 0.24 0.24 51 1010.5
20260904051806 56 267 0.0 1.0 0.00 0.24 0.24 50 1010.4
20260904051305 56 267 1.0 2.0 0.00 0.24 0.24 49 1010.3
20260904050804 56 266 2.0 3.0 0.00 0.24 0.24 49 1010.3
20260904050305 55 263 1.0 2.0 0.00 0.24 0.24 51 1010.2
20260904045806 56 259 0.0 1.0 0.00 0.24 0.24 52 1010.2
20260904045307 56 259 0.0 1.0 0.00 0.24 0.24 50 1010.3
20260904044805 56 259 1.0 5.0 0.00 0.24 0.24 51 1010.2
20260904044306 56 286 1.0 3.0 0.00 0.24 0.24 51 1010.2
20260904043804 56 269 0.0 2.0 0.00 0.24 0.24 51 1010.1
20260904043305 57 260 0.0 1.0 0.00 0.24 0.24 51 1010.0
20260904042805 57 260 0.0 1.0 0.00 0.24 0.24 50 1010.0
20260904041805 58 255 1.0 3.0 0.00 0.24 0.24 48 1009.9
20260904040304 59 259 1.0 3.0 0.00 0.24 0.24 47 1010.0
20260904035804 59 245 2.0 3.0 0.00 0.24 0.24 46 1009.9
20260904035306 60 261 1.0 7.0 0.00 0.24 0.24 46 1009.9
20260904034805 60 263 2.0 7.0 0.00 0.24 0.24 45 1009.9
20260904034304 61 255 2.0 7.0 0.00 0.24 0.24 44 1010.0
20260904033804 61 259 2.0 7.0 0.00 0.24 0.24 44 1010.0
20260904033305 60 275 2.0 6.0 0.00 0.24 0.24 44 1009.9
20260904032806 60 265 3.0 7.0 0.00 0.24 0.24 46 1010.0
20260904032306 60 272 3.0 6.0 0.00 0.24 0.24 48 1010.1
20260904031804 60 261 2.0 5.0 0.00 0.24 0.24 62 1010.3
20260904030805 60 48 0.0 3.0 0.00 0.24 0.24 69 1010.1
20260904030305 60 54 1.0 3.0 0.00 0.24 0.24 69 1009.9
20260904025804 60 344 1.0 3.0 0.00 0.24 0.24 69 1009.8
20260904024805 59 357 3.0 7.0 0.00 0.24 0.24 73 1009.9
20260904024304 58 340 2.0 5.0 0.00 0.24 0.24 73 1009.9
20260904023304 59 56 0.0 2.0 0.00 0.24 0.24 72 1009.4
20260904022805 60 62 2.0 6.0 0.00 0.24 0.24 71 1009.4
20260904022306 60 78 2.0 5.0 0.00 0.24 0.24 70 1009.3
20260904021804 60 71 1.0 3.0 0.00 0.24 0.24 70 1009.0
20260904021304 60 71 2.0 5.0 0.00 0.24 0.24 69 1009.1
20260904020805 61 102 1.0 3.0 0.00 0.24 0.24 68 1009.0
20260904020304 61 86 1.0 7.0 0.00 0.24 0.24 67 1009.0
20260904015805 61 69 2.0 6.0 0.00 0.24 0.24 67 1008.9
20260904015306 61 58 1.0 5.0 0.00 0.24 0.24 67 1008.9
20260904014805 62 85 1.0 5.0 0.00 0.24 0.24 66 1008.9
20260904014304 62 74 2.0 5.0 0.00 0.24 0.24 65 1009.0
20260904013804 62 71 2.0 5.0 0.00 0.24 0.24 64 1008.8
20260904013305 63 118 1.0 2.0 0.00 0.24 0.24 63 1008.7
20260904012805 63 55 1.0 5.0 0.00 0.24 0.24 62 1008.6
20260904012306 64 78 2.0 5.0 0.00 0.24 0.24 60 1008.4
20260904011804 64 43 1.0 3.0 0.00 0.24 0.24 59 1008.3
20260904011304 65 106 1.0 2.0 0.00 0.24 0.24 57 1008.3
20260904010805 65 66 2.0 6.0 0.00 0.24 0.24 55 1008.1
20260904010304 66 91 2.0 6.0 0.00 0.24 0.24 54 1008.1
20260904005306 66 108 1.0 7.0 0.00 0.24 0.24 53 1008.1
20260904004804 66 116 1.0 3.0 0.00 0.24 0.24 52 1008.0
20260904004305 67 127 1.0 2.0 0.00 0.24 0.24 52 1008.1
20260904003804 66 109 1.0 2.0 0.00 0.24 0.24 54 1008.2
20260904003306 67 191 1.0 3.0 0.00 0.24 0.24 53 1008.0
20260904002306 68 188 1.0 3.0 0.00 0.24 0.24 51 1007.8
20260904001805 67 145 1.0 3.0 0.00 0.24 0.24 52 1008.0
20260904001305 67 131 1.0 3.0 0.00 0.24 0.24 51 1007.7
20260904000804 67 106 1.0 5.0 0.00 0.24 0.24 51 1007.7
20260904000304 68 122 1.0 5.0 0.00 0.24 0.24 49 1007.5
20260903234804 70 111 1.0 7.0 0.00 0.24 0.24 47 1007.3
20260903234304 69 160 1.0 7.0 0.00 0.24 0.24 45 1007.5
20260903233804 69 57 1.0 3.0 0.00 0.24 0.24 46 1007.6
20260903233305 70 158 2.0 3.0 0.00 0.24 0.24 45 1007.6
20260903232804 70 179 1.0 5.0 0.00 0.24 0.24 44 1007.6
20260903232306 69 217 1.0 5.0 0.00 0.24 0.24 45 1007.3
20260903231804 70 59 1.0 2.0 0.00 0.24 0.24 45 1007.3
20260903231305 70 100 0.0 2.0 0.00 0.24 0.24 45 1007.1
20260903230804 71 195 1.0 3.0 0.00 0.24 0.24 44 1007.0
20260903230304 70 251 1.0 3.0 0.00 0.24 0.24 43 1007.1
20260903225804 70 100 1.0 3.0 0.00 0.24 0.24 43 1007.3
20260903225306 70 62 1.0 2.0 0.00 0.24 0.24 43 1007.2
20260903224804 69 326 1.0 3.0 0.00 0.24 0.24 45 1007.2
20260903224304 68 13 0.0 2.0 0.00 0.24 0.24 47 1007.5
20260903223305 67 331 1.0 3.0 0.00 0.24 0.24 47 1007.2
20260903221804 69 45 0.0 2.0 0.00 0.24 0.24 48 1007.3
20260903221305 68 26 1.0 3.0 0.00 0.24 0.24 50 1007.3
20260903220804 66 4 0.0 2.0 0.00 0.24 0.24 50 1007.8
20260903220304 66 4 0.0 2.0 0.00 0.24 0.24 52 1007.9
20260903215804 64 5 0.0 1.0 0.00 0.24 0.24 58 1008.2
20260903214804 64 5 0.0 1.0 0.00 0.24 0.24 59 1008.0
20260903214304 64 5 0.0 2.0 0.00 0.24 0.24 59 1007.7
20260903212306 64 12 0.0 3.0 0.00 0.24 0.24 59 1008.1
20260903211805 64 11 2.0 3.0 0.00 0.24 0.24 60 1007.8
20260903211305 63 343 2.0 3.0 0.00 0.24 0.24 60 1008.3
20260903210804 62 339 0.0 3.0 0.00 0.24 0.24 64 1008.4
20260903210304 61 10 1.0 3.0 0.00 0.24 0.24 64 1008.3
20260903205804 60 9 1.0 6.0 0.00 0.24 0.24 70 1008.4
20260903205306 60 28 2.0 3.0 0.00 0.24 0.24 69 1008.4
20260903204804 59 345 1.0 2.0 0.00 0.24 0.24 74 1008.7
20260903203305 57 352 2.0 5.0 0.01 0.24 0.24 77 1008.8
20260903202804 57 353 2.0 6.0 0.01 0.24 0.24 80 1009.0
20260903202306 57 345 3.0 6.0 0.03 0.24 0.24 78 1008.8
20260903201804 56 347 2.0 3.0 0.06 0.24 0.24 81 1008.9
20260903201305 56 10 1.0 5.0 0.08 0.24 0.24 82 1008.9
20260903200804 55 31 1.0 6.0 0.10 0.24 0.24 82 1009.1
20260903200304 55 341 2.0 7.0 0.12 0.24 0.24 83 1009.1
20260903195805 55 16 2.0 7.0 0.14 0.24 0.24 85 1009.1
20260903194804 55 343 2.0 7.0 0.17 0.24 0.24 85 1009.0
20260903194304 55 325 3.0 6.0 0.18 0.24 0.24 86 1009.1
20260903193805 54 9 3.0 6.0 0.20 0.24 0.24 86 1009.0
20260903193304 54 12 1.0 5.0 0.19 0.23 0.23 87 1009.3
20260903192804 54 347 1.0 5.0 0.20 0.23 0.23 86 1009.6
20260903192306 54 347 1.0 5.0 0.18 0.21 0.21 85 1009.8
20260903191805 54 330 1.0 5.0 0.15 0.18 0.18 83 1010.0
20260903191304 54 332 1.0 3.0 0.13 0.16 0.16 82 1010.1
20260903190805 55 252 1.0 2.0 0.11 0.14 0.14 82 1010.3
20260903190304 55 250 1.0 3.0 0.09 0.12 0.12 81 1010.2
20260903185805 55 269 1.0 5.0 0.07 0.10 0.10 79 1010.3
20260903185306 56 259 1.0 5.0 0.05 0.08 0.08 77 1010.1
20260903184804 56 266 2.0 5.0 0.04 0.07 0.07 74 1010.1
20260903184305 57 253 1.0 5.0 0.03 0.06 0.06 72 1009.8
20260903183804 58 259 3.0 9.0 0.01 0.04 0.04 68 1009.4
20260903183304 59 286 4.0 12.0 0.01 0.04 0.04 63 1009.2
20260903182804 59 267 4.0 10.0 0.00 0.03 0.03 59 1009.2
20260903182306 60 267 3.0 8.0 0.00 0.03 0.03 58 1009.0
20260903181305 60 261 5.0 10.0 0.00 0.03 0.03 56 1008.8
20260903180804 61 270 3.0 8.0 0.00 0.03 0.03 64 1008.6
20260903180305 61 47 2.0 7.0 0.00 0.03 0.03 64 1008.6
20260903175306 61 253 2.0 6.0 0.00 0.03 0.03 64 1008.5
20260903174804 61 56 1.0 9.0 0.00 0.03 0.03 65 1008.4
20260903174305 61 9 3.0 9.0 0.00 0.03 0.03 65 1008.4
20260903173804 61 341 5.0 10.0 0.00 0.03 0.03 65 1008.5
20260903173305 61 10 4.0 10.0 0.00 0.03 0.03 65 1008.1
20260903172306 62 358 2.0 8.0 0.00 0.03 0.03 64 1007.9
20260903171804 62 320 3.0 9.0 0.00 0.03 0.03 64 1007.7
20260903171304 62 264 3.0 9.0 0.00 0.03 0.03 64 1007.7
20260903170804 61 317 3.0 14.0 0.00 0.03 0.03 65 1007.6
20260903165804 62 26 5.0 14.0 0.00 0.03 0.03 64 1007.4
20260903165305 62 340 3.0 9.0 0.00 0.03 0.03 64 1007.5
20260903164804 62 18 3.0 9.0 0.00 0.03 0.03 64 1007.3
20260903164305 62 321 3.0 8.0 0.00 0.03 0.03 63 1006.9
20260903163804 62 352 3.0 9.0 0.00 0.03 0.03 64 1006.9
20260903163304 61 265 3.0 10.0 0.00 0.03 0.03 64 1006.9
20260903162804 61 26 3.0 9.0 0.00 0.03 0.03 65 1006.6
20260903162306 61 274 2.0 10.0 0.00 0.03 0.03 65 1006.6
20260903161804 61 265 2.0 9.0 0.00 0.03 0.03 65 1006.5
20260903160804 61 257 5.0 10.0 0.00 0.03 0.03 65 1006.5
20260903160305 61 284 1.0 6.0 0.00 0.03 0.03 65 1006.1
20260903155805 60 320 3.0 10.0 0.00 0.03 0.03 66 1006.5
20260903155306 60 341 5.0 10.0 0.00 0.03 0.03 67 1006.2
20260903154804 60 19 3.0 9.0 0.00 0.03 0.03 68 1006.2
20260903154306 60 263 3.0 10.0 0.00 0.03 0.03 68 1006.4
20260903153804 60 354 3.0 12.0 0.00 0.03 0.03 68 1006.3
20260903152805 59 25 4.0 9.0 0.00 0.03 0.03 69 1006.5
20260903152306 59 333 2.0 7.0 0.00 0.03 0.03 70 1006.8
20260903151804 59 18 3.0 10.0 0.00 0.03 0.03 69 1006.8
20260903151304 59 319 4.0 8.0 0.00 0.03 0.03 69 1006.3
20260903150804 59 345 2.0 5.0 0.00 0.03 0.03 69 1006.1
20260903150306 59 354 3.0 7.0 0.00 0.03 0.03 69 1005.9
20260903145804 59 268 2.0 10.0 0.00 0.03 0.03 69 1005.9
20260903145306 59 349 4.0 10.0 0.00 0.03 0.03 69 1006.0
20260903144804 59 0 1.0 9.0 0.00 0.03 0.03 70 1005.8
20260903143304 59 346 4.0 9.0 0.01 0.03 0.03 69 1005.6
20260903142804 59 12 2.0 7.0 0.02 0.03 0.03 70 1005.6
20260903142306 59 19 3.0 7.0 0.03 0.03 0.03 70 1005.4
20260903141804 59 345 2.0 8.0 0.03 0.03 0.03 70 1005.6
20260903141304 59 339 2.0 7.0 0.03 0.03 0.03 71 1005.7
20260903140804 59 350 3.0 9.0 0.03 0.03 0.03 71 1005.5
20260903140305 59 354 2.0 8.0 0.03 0.03 0.03 71 1005.4
20260903135804 59 16 3.0 7.0 0.03 0.03 0.03 72 1005.5
20260903135306 58 323 3.0 9.0 0.03 0.03 0.03 71 1005.4
20260903133805 58 273 2.0 7.0 0.03 0.03 0.03 74 1005.1
20260903133305 58 292 1.0 3.0 0.02 0.02 0.02 75 1005.0
20260903132805 58 2 2.0 5.0 0.01 0.01 0.01 73 1005.0
20260903131805 58 352 2.0 6.0 0.00 0.00 0.00 69 1004.7
20260903131305 58 285 2.0 8.0 0.00 0.00 0.00 69 1004.7
20260903130805 58 7 2.0 6.0 0.00 0.00 0.00 69 1004.9
20260903130306 58 339 2.0 9.0 0.00 0.00 0.00 68 1004.5
20260903125805 58 357 3.0 7.0 0.00 0.00 0.00 68 1004.5
20260903125306 58 14 3.0 6.0 0.00 0.00 0.00 67 1004.5
20260903124805 59 0 2.0 7.0 0.00 0.00 0.00 66 1004.3
20260903123305 59 333 2.0 7.0 0.00 0.00 0.00 67 1004.0
20260903122805 59 18 2.0 7.0 0.00 0.00 0.00 66 1004.2
20260903122306 59 344 2.0 9.0 0.00 0.00 0.00 65 1004.0
20260903121805 59 356 2.0 9.0 0.00 0.00 0.00 65 1004.1
20260903121305 59 32 3.0 7.0 0.00 0.00 0.00 64 1003.9
20260903120806 59 343 2.0 6.0 0.00 0.00 0.00 63 1003.9
20260903115805 59 21 1.0 8.0 0.00 0.00 0.00 59 1003.7
20260903115306 59 46 2.0 6.0 0.00 0.00 0.00 57 1003.7
20260903114805 59 3 3.0 7.0 0.00 0.00 0.00 56 1003.9
20260903113805 57 15 1.0 2.0 0.00 0.00 0.00 62 1003.6
20260903113305 58 15 0.0 3.0 0.00 0.00 0.00 62 1003.5
20260903112805 59 344 1.0 3.0 0.00 0.00 0.00 60 1003.7
20260903112306 60 15 1.0 6.0 0.00 0.00 0.00 57 1003.3
20260903111805 61 354 1.0 5.0 0.00 0.00 0.00 51 1003.2
20260903111305 61 249 2.0 9.0 0.00 0.00 0.00 50 1003.3
20260903110805 61 279 4.0 9.0 0.00 0.00 0.00 49 1003.1
20260903110306 61 259 3.0 9.0 0.00 0.00 0.00 50 1003.3
20260903105805 60 275 3.0 8.0 0.00 0.00 0.00 51 1003.3
20260903105306 60 270 3.0 7.0 0.00 0.00 0.00 53 1003.2
20260903104807 60 273 3.0 9.0 0.00 0.00 0.00 53 1003.1
20260903104306 60 265 2.0 7.0 0.00 0.00 0.00 53 1003.2
20260903103805 60 256 2.0 7.0 0.00 0.00 0.00 54 1003.5
20260903103305 60 271 2.0 7.0 0.00 0.00 0.00 54 1003.3
20260903102806 60 262 3.0 9.0 0.00 0.00 0.00 54 1003.2
20260903101805 60 270 2.0 6.0 0.00 0.00 0.00 54 1003.5
20260903101305 60 305 1.0 5.0 0.00 0.00 0.00 55 1003.6
20260903100806 60 244 2.0 6.0 0.00 0.00 0.00 55 1003.6
20260903100305 60 354 3.0 7.0 0.00 0.00 0.00 54 1003.8
20260903095805 60 332 3.0 7.0 0.00 0.00 0.00 54 1003.9
20260903094806 60 22 2.0 8.0 0.00 0.00 0.00 54 1003.8
20260903094305 60 2 3.0 9.0 0.00 0.00 0.00 54 1003.5
20260903093305 60 355 1.0 5.0 0.00 0.00 0.00 54 1003.4
20260903092806 60 330 1.0 5.0 0.00 0.00 0.00 54 1003.6
20260903091806 60 306 0.0 3.0 0.00 0.00 0.00 53 1003.6
20260903091305 60 290 1.0 5.0 0.00 0.00 0.00 53 1003.9
20260903090806 60 272 2.0 7.0 0.00 0.00 0.00 55 1003.8
20260903090305 60 1 2.0 6.0 0.00 0.00 0.00 56 1003.9
20260903085805 59 4 2.0 6.0 0.00 0.00 0.00 56 1004.1
20260903085306 59 170 0.0 7.0 0.00 0.00 0.00 56 1003.7
20260903084806 59 20 1.0 6.0 0.00 0.00 0.00 57 1003.9
20260903084305 59 353 2.0 6.0 0.00 0.00 0.00 56 1003.5
20260903083805 60 47 2.0 6.0 0.00 0.00 0.00 56 1003.7
20260903082805 60 310 2.0 7.0 0.00 0.00 0.00 54 1003.4
20260903082306 60 272 2.0 5.0 0.00 0.00 0.00 54 1003.3
20260903081805 60 118 1.0 7.0 0.00 0.00 0.00 54 1003.4
20260903081306 60 307 1.0 9.0 0.00 0.00 0.00 54 1003.0
20260903080805 60 279 3.0 9.0 0.00 0.00 0.00 54 1003.3
20260903080305 60 295 2.0 6.0 0.00 0.00 0.00 53 1003.2